Location: Champaign/Urbana Astronomical Society Observatory
(40.0333°N, 88.2833°W)
Time: 19:29:09
(UTC-05:00)

DX 1 - Visible Passes

Search period start: 26 May 2019 00:00
Search period end: 05 June 2019 00:00
Orbit: 620 x 630 km, 98.4° (Epoch: 26 May)

Date Brightness Start Highest point End Pass type
(mag) Time Alt. Az. Time Alt. Az. Time Alt. Az.
26 May ? 02:47:09 10° E 02:49:23 14° ENE 02:51:37 10° NNE visible
26 May ? 04:20:48 10° S 04:25:02 55° W 04:29:21 10° NNW visible
27 May ? 03:04:47 10° ESE 03:08:03 21° ENE 03:11:20 10° NNE visible
27 May ? 04:40:02 10° SSW 04:43:58 34° W 04:47:58 10° NNW visible
28 May ? 03:22:55 10° SE 03:26:47 32° ENE 03:30:41 10° N visible
29 May ? 03:41:20 10° SSE 03:45:33 51° ENE 03:49:48 10° N visible
30 May ? 04:00:02 10° SSE 04:04:23 84° ENE 04:08:47 10° NNW visible
31 May ? 02:45:38 10° E 02:47:38 13° ENE 02:49:38 10° NE visible
31 May ? 04:18:58 10° S 04:23:15 60° WSW 04:27:35 10° NNW visible
01 Jun ? 03:03:09 10° ESE 03:06:18 20° ENE 03:09:27 10° NNE visible
01 Jun ? 04:38:09 10° SSW 04:42:11 37° W 04:46:15 10° NNW visible
02 Jun ? 03:21:13 10° SE 03:25:01 30° ENE 03:28:50 10° N visible
03 Jun ? 03:39:36 10° SE 03:43:47 47° ENE 03:48:00 10° N visible
04 Jun ? 03:58:15 10° SSE 04:02:35 77° ENE 04:06:59 10° N visible
